COSMOS 1670 DEB, 44569

Orbit data source: Space-Track

COSMOS 1670 DEB, 44569 is space debris in LEO originally from a launch on Thu, 01 Aug 1985 UTC launched from the Tyuratam Missile And Space Complex (TTMTR). Debris objects in space refer to the collection of defunct objects orbiting the Earth. Examples of debris include non-operational satellites, rocket bodies, and fragments generated from explosions, collisions, or faulty payload assembly.

Loading next visibility...
Identifier
44569, 1985-064F
Orbit
LEO
Country
Flag of CISCIS
Related business
Manufacturer
Unknown
Mission
Spacecraft
Bus & Motor
Unknown
Mass
Unknown
Launch date (UTC)
1985-08-01 (40 years ago)
Launch vehicle
Unknown
Launch site
Tyuratam Missile And Space Complex (TTMTR)
Object type
Payload
Rocket body
Debris
Shape & HBR
Unknown shape, 0.1 m
Radar Cross Section
Small (<0.1 m²)

Expand to show TLE details & history
Last TLE update: 2 days ago

TLE from 2 days ago
0 COSMOS 1670 DEB
1 44569U 85064F   25308.21437866  .00020746  00000-0  51957-2 0  9994
2 44569  64.9040 284.9764 0003260  87.4982 289.2722 14.51418539 73319
Epoch: 2025-11-04T05:08Z
TLE epoch observation values (Epoch: 2025-11-04T05:08:42.316Z)
Latitude
15.10881°
Longitude
171.32066°
Altitude
721.534 km
Speed
7.497 km/s
True Right ascension
19h 28m 48s
True Declination
15° 01' 19"
Sunlit
Object was in daylight at epoch
Visualization orbit readout
Latitude
Unknown
Longitude
Unknown
Altitude
Unknown
Speed
Unknown
Apparent Right ascension
Unknown
Apparent Declination
Unknown
Sunlit
N/A
Visualization observer readout
Local Sidereal Time
20:18:05
Azimuth
Unknown
Elevation
Unknown
Doppler factor
Unknown
Orbital elements
Apogee altitude
721.91 km
Perigee altitude
717.282 km
Semi-major axis
7,097.733 km
Eccentricity
0.00033
Inclination
64.904°
RAAN
284.9764°
Arg. of periapsis
87.4982°
True anomaly
289.23693°
Mean anomaly
289.2722°
Eccentric anomaly
289.25457°
Mean motion
3.62964 °/min
Orbital period
99.18 mins
BSTAR
0.0051957
Loading maneuver chart data...
Computing Atmospheric mass density...
Loading historical data...
Loading historical data...
Loading historical data...
Loading historical data...
Loading historical data...
Loading historical data...
Loading historical data...

Documentation

Showing up to 5 results
|